N8DH Weather Reports


time (UTC)temp
C
wind
direction
speed
KPH
gust
KPH
rain 1hr
cm
rain 24hr
cm
rain mn
cm
humidity
%
barometer
mb
20260506111608 7 249 1.6 3.2 0.00 3.10 0.51 92 1002.4
20260506110019 7 292 0.0 3.2 0.00 3.10 0.51 92 1002.0
20260506104545 7 256 1.6 3.2 0.00 3.10 0.51 92 1001.8
20260506103137 7 271 0.0 3.2 0.00 3.10 0.51 93 1001.7
20260506101511 7 334 1.6 4.8 0.00 3.10 0.51 93 1001.9
20260506100057 7 230 1.6 4.8 0.00 3.10 0.51 93 1002.1
20260506094636 7 276 0.0 3.2 0.00 3.10 0.51 93 1001.0
20260506093145 7 270 0.0 3.2 0.03 3.10 0.51 93 1001.2
20260506091602 7 255 0.0 3.2 0.03 3.10 0.51 93 1001.6
20260506090145 7 263 0.0 3.2 0.05 3.10 0.51 93 1002.1
20260506084612 7 259 0.0 3.2 0.08 3.07 0.48 94 1002.0
20260506083018 7 251 0.0 3.2 0.13 3.07 0.48 94 1001.6
20260506081545 7 298 0.0 3.2 0.13 3.07 0.48 94 1001.6
20260506080108 7 309 0.0 3.2 0.15 3.05 0.46 94 1001.7
20260506073021 7 250 0.0 4.8 0.13 2.92 0.36 94 1001.8
20260506071604 7 279 1.6 4.8 0.13 2.90 0.33 94 1001.6
20260506070138 7 311 0.0 3.2 0.13 2.87 0.30 94 1001.5
20260506061618 7 28 0.0 4.8 0.10 2.79 0.20 92 1001.3
20260506060141 7 360 0.0 3.2 0.10 2.77 0.18 92 1001.7
20260506050137 7 323 0.0 3.2 0.08 2.67 0.08 92 1001.7
20260506044512 7 347 0.0 4.8 0.05 2.64 0.05 90 1001.7
20260506043100 7 350 1.6 4.8 0.08 2.64 0.05 91 1001.8
20260506041527 7 28 1.6 6.4 0.10 2.62 0.03 91 1001.9
20260506040054 8 10 3.2 6.4 0.13 2.59 0.00 92 1002.0
20260506034642 8 55 0.0 4.8 0.20 2.59 2.59 93 1002.2
20260506033155 8 299 1.6 6.4 0.28 2.57 2.57 94 1002.4
20260506031511 8 303 0.0 3.2 0.33 2.51 2.51 94 1002.5
20260506030055 8 323 0.0 3.2 0.38 2.46 2.46 94 1002.5
20260506024641 8 304 0.0 4.8 0.41 2.39 2.39 94 1002.4
20260506023030 8 306 0.0 3.2 0.46 2.29 2.29 94 1002.5
20260506021606 9 306 0.0 3.2 0.41 2.18 2.18 94 1002.3
20260506020138 9 32 0.0 3.2 0.36 2.08 2.08 94 1002.0
20260506014516 9 5 0.0 3.2 0.23 1.96 1.96 94 1001.7
20260506013109 9 16 0.0 4.8 0.13 1.83 1.83 94 1001.7
20260506011647 9 31 3.2 4.8 0.08 1.78 1.78 94 1001.5
20260506010024 9 40 1.6 4.8 0.08 1.73 1.73 94 1001.6
20260506004555 9 292 0.0 3.2 0.13 1.73 1.73 94 1001.7
20260506003009 9 326 0.0 3.2 0.18 1.70 1.70 94 1001.6
20260506001556 9 355 0.0 12.9 0.20 1.70 1.70 94 1001.3
20260506000144 9 283 4.8 9.7 0.15 1.65 1.65 93 1001.4
20260505234516 10 16 3.2 9.7 0.10 1.57 1.57 93 1000.7
20260505233108 10 44 3.2 9.7 0.10 1.52 1.52 93 1000.9
20260505231520 10 12 1.6 6.4 0.20 1.50 1.50 93 1001.0
20260505230108 10 20 1.6 6.4 0.28 1.50 1.50 93 1000.9
20260505224642 10 320 0.0 3.2 0.30 1.45 1.45 93 1001.6
20260505223027 10 262 3.2 8.0 0.38 1.42 1.42 93 1001.7
20260505221552 10 299 1.6 6.4 0.36 1.30 1.30 92 1001.3
20260505220038 11 305 0.0 4.8 0.36 1.22 1.22 93 1000.8
20260505214606 11 240 1.6 3.2 0.41 1.17 1.17 92 1000.8
20260505213040 13 205 0.0 4.8 0.43 1.04 1.04 93 1000.4
20260505211612 13 232 1.6 8.0 0.43 0.94 0.94 93 1000.5
20260505210016 13 220 0.0 6.4 0.48 0.86 0.86 93 1000.5
20260505204608 13 202 0.0 6.4 0.46 0.76 0.76 93 1000.6
20260505203041 13 294 1.6 4.8 0.41 0.61 0.61 93 1000.7
20260505201604 13 247 0.0 8.0 0.38 0.51 0.51 92 1000.6
20260505200029 13 276 0.0 6.4 0.30 0.38 0.38 92 1000.6
20260505194607 13 294 0.0 6.4 0.28 0.30 0.30 91 1000.6
20260505193002 13 259 1.6 8.0 0.20 0.20 0.20 90 1000.8
20260505191602 13 227 0.0 8.0 0.13 0.13 0.13 89 1000.9
20260505190142 14 252 3.2 6.4 0.08 0.08 0.08 87 1000.9
20260505184506 14 239 1.6 8.0 0.03 0.03 0.03 86 1001.0
20260505183100 15 244 3.2 11.3 0.00 0.00 0.00 81 1001.1
20260505181509 16 270 3.2 12.9 0.00 0.00 0.00 76 1000.8
20260505174638 17 253 6.4 16.1 0.00 0.00 0.00 71 1000.6
20260505173143 17 219 9.7 24.1 0.00 0.00 0.00 70 1000.6
20260505171541 17 193 6.4 16.1 0.00 0.00 0.00 70 1000.6
20260505170109 17 200 3.2 17.7 0.00 0.00 0.00 71 1000.6
20260505164551 17 234 9.7 19.3 0.00 0.00 0.00 69 1000.6
20260505163106 17 250 6.4 22.5 0.00 0.00 0.00 68 1000.6
20260505161642 17 275 8.0 27.4 0.00 0.00 0.00 68 1000.4
20260505153046 19 205 14.5 33.8 0.00 0.00 0.00 62 999.9
20260505151611 18 206 17.7 40.2 0.00 0.00 0.00 63 999.3
20260505150144 18 229 11.3 32.2 0.00 0.00 0.00 63 999.0
20260505140110 17 188 4.8 27.4 0.00 0.00 0.00 67 999.2
20260505130103 16 184 12.9 29.0 0.00 0.00 0.00 73 998.7
20260505124644 16 204 8.0 16.1 0.00 0.00 0.00 74 999.0
20260505123047 16 184 11.3 27.4 0.00 0.00 0.00 73 999.1
20260505121521 16 211 11.3 17.7 0.00 0.00 0.00 71 998.8
20260505120051 16 187 9.7 20.9 0.00 0.00 0.00 71 998.5
20260505114642 16 177 8.0 14.5 0.00 0.00 0.00 71 997.9
20260505113018 15 185 6.4 11.3 0.00 0.00 0.00 72 997.3